www.pogodaiklimat.ru
ПОГОДА в Марикопе
Время
и дата
03:35 07.02
03:55 07.02
04:15 07.02
04:35 07.02
04:55 07.02
05:15 07.02
05:35 07.02
05:55 07.02
06:10 07.02
06:35 07.02
06:55 07.02
07:15 07.02
07:35 07.02
07:55 07.02
08:15 07.02
08:35 07.02
08:55 07.02
09:15 07.02
09:35 07.02
09:55 07.02
10:15 07.02
10:35 07.02
10:55 07.02
11:15 07.02
11:35 07.02
11:55 07.02
12:15 07.02
12:35 07.02
12:55 07.02
13:15 07.02
13:35 07.02
13:55 07.02
14:15 07.02
14:35 07.02
14:55 07.02
15:15 07.02
15:35 07.02
15:55 07.02
16:15 07.02
16:35 07.02
16:55 07.02
17:15 07.02
17:35 07.02
17:55 07.02
18:15 07.02
18:35 07.02
18:55 07.02
19:15 07.02
Ветер
(напр.,м/с)
Видим. Явления Облачность Т
(С)
Тd
(С)
f
(%)
Тe
(С)
Тes
(С)
Комфортность P
(гПа)
Po
(гПа)
Тmin
(С)
Tmax
(С)
R
(мм)
R24
(мм)
S
(см)
С 2 16 км 8/0 3000 m
[Ac]
+4.0 -2.0 65 +2 +2 975.1
С 3 16 км 8/0 3000 m
[Ac]
+4.0 -3.0 60 +1 +1 975.1
С 3 16 км 10/0 3000 m
[Ac]
+5.0 -3.0 56 +2 +2 975.1
С 4 16 км 8/0 3300 m
[Ac]
+4.0 -3.0 60 0 0 975.4
З 2 16 км 5/0 3600 m
[Ac]
+4.0 -3.0 60 +2 +2 975.4
штиль 0 16 км 5/0 3300 m
[Ac]
+3.0 -3.0 65 +2 +2 975.7
штиль 0 16 км 5/0 3300 m
[Ac]
+4.0 -3.0 60 +3 +3 975.7
штиль 0 16 км 5/0 3300 m
[Ac]
+4.0 -3.0 60 +3 +3 975.7
З 2 16 км 5/0 3300 m
[Ac]
+4.0 -3.0 60 +2 +2 976.0
З 3 16 км ясно +2.0 -4.0 64 -2 -2 976.3
штиль 0 16 км ясно +2.0 -3.0 69 +1 +1 976.7
З 2 16 км ясно +2.0 -3.0 69 -1 -1 976.7
СВ 2 16 км ясно +3.0 -4.0 60 0 0 977.0
штиль 0 16 км ясно +3.0 -2.0 70 +2 +2 977.3
штиль 0 16 км ясно +5.0 -1.0 65 +4 +5 977.6
штиль 0 16 км 5/0 2850 m
[Ac]
+7.0 -2.0 53 +7 +7 977.6
штиль 0 16 км 8/0 3300 m
[Ac]
+7.0 -2.0 53 +7 +7 978.0
С 2 16 км 5/0 3300 m
[Ac]
+9.0 -3.0 43 +8 +10 978.0
СЗ 3 16 км 5/0 3300 m
[Ac]
+10.0 -3.0 40 +8 +10 978.0
С 3 16 км 8/0 3000 m
[Ac]
+11.0 -3.0 37 +10 +11 978.0
С 2 16 км 8/0 3300 m
[Ac]
+11.0 -3.0 37 +10 +13 978.3
С 3 16 км 8/0 3300 m
[Ac]
+12.0 -3.0 35 +11 +13 978.3
С 4 16 км 8/0 3300 m
[Ac]
+13.0 -3.0 33 +12 +13 978.3
С 4 16 км 8/0 3300 m
[Ac]
+14.0 -4.0 28 +13 +15 978.3
С 5 16 км 8/0 3600 m
[Ac]
+15.0 -4.0 27 +14 +16 978.3
С 5 16 км 8/0 3300 m
[Ac]
+15.0 -5.0 25 +14 +16 978.3
С 4 16 км 8/0 3300 m
[Ac]
+15.0 -5.0 25 +14 +17 978.0
СВ 3 16 км 8/0 3300 m
[Ac]
+15.0 -6.0 23 +15 +18 977.6
С 4 16 км 8/0 3300 m
[Ac]
+16.0 -6.0 22 +15 +18 977.3
С 4 16 км 10/0 3300 m
[Ac]
+16.0 -6.0 22 +15 +17 977.0
С 4 16 км 10/0 3300 m
[Ac]
+16.0 -6.0 22 +15 +17 976.7
С 3 16 км 5/0 3300 m
[Ac]
+17.0 -6.0 20 +17 +22 976.3
С 4 16 км ясно +17.0 -6.0 20 +17 +22 976.3
СЗ 4 16 км ясно +17.0 -6.0 20 +17 +22 976.0
С 3 16 км ясно +18.0 -6.0 19 +18 +25 976.0
С 5 16 км ясно +18.0 -6.0 19 +18 +20 976.0
СЗ 4 16 км ясно +18.0 -6.0 19 +18 +21 976.0
С 3 16 км ясно +18.0 -7.0 18 +18 +23 976.0
С 3 16 км ясно +18.0 -7.0 18 +18 +20 975.7
СЗ 4 16 км ясно +18.0 -6.0 19 +18 +20 976.0
СЗ 4 16 км ясно +18.0 -6.0 19 +18 +20 976.0
З 4 16 км ясно +17.0 -5.0 22 +17 +17 976.0
З 4 16 км ясно +17.0 -5.0 22 +17 +17 976.0
З 4 16 км ясно +15.0 -5.0 25 +14 +15 976.0
З 3 16 км ясно +14.0 -4.0 28 +13 +13 976.0
З 3 16 км ясно +13.0 -5.0 28 +12 +12 976.0
З 3 16 км ясно +12.0 -5.0 30 +11 +11 976.3
З 2 16 км 5/0 3300 m
[Ac]
+12.0 -5.0 30 +12 +12 976.3
Местоположение метеостанции Ak-Chin Regional Airport: широта 32.9908 долгота -111.9175 высота над уровнем моря 391 м.
В архиве по умолчанию представлена погода в Марикопе за последние 1-2 суток. Обновление информации о фактической погоде в базе происходит ежечасно! Архивные данные за месяц целиком и за предыдущие месяцы Вы можете получить, выбрав интересующий диапазон дат из раскрывающегося списка и нажав кнопку "Ввод!".
Внимание! Архив погоды МЕТАР в базе сайта по станциям, не включенным в климатический монитор, хранится не более 60 дней. Нет смысла пытаться выбрать более раннюю дату.
*Определитесь, кто Вы:
Внимание! Время в таблицах - местное (без учета летнего времени). Для получения всемирного времени необходимо вычесть поправку, которая равна -7 ч.
Смотрите также архив погоды в соседних городах и на ближайших метеорологических станциях:
Партнеры нашего сайта:      
Пояснения к столбцам:
  • Ветер - указаны скорость ветра в м/с - средняя за 10 мин, порывы в срок и между сроками (в фигурных скобках) и направление, откуда дует ветер: С - северный,
  • СВ - северо-восточный, В - восточный, ЮВ - юго-восточный, Ю - южный, ЮЗ - юго-западный, З - западный, СЗ - северо-западный.
  • Видимость - горизонтальная дальность видимости в метрах или километрах. При видимости от 1 до 10 км при отсутствии осадков обычно наблюдается дымка, при ухудшении видимости до 1 км и менее - туман. В сухую погоду видимость может ухудшаться дымом, пылью или мглою.
  • Явления - указаны атмосферные явления, наблюдавшиеся в срок или в последний час перед сроком; фигурными скобками обозначены явления, наблюдавшиеся между сроками (за 1-3 часа до срока); квадратными скобками обозначены град или гололедные отложения с указанием их диаметра в мм.
  • Облачность - указаны через наклонную черту общая и нижняя облачность в баллах и высота нижней границы облаков в метрах; квадратными скобками обозначены формы облаков: Ci - перистые, Cs - перисто-слоистые, Cc - перисто-кучевые, Ac - высококучевые, As - высокослоистые, Sc - слоисто-кучевые, Ns - слоисто-дождевые, Cu - кучевые, Cb - кучево-дождевые. Подробнее классификацию облаков см. в Атласе облаков (PDF).
  • T - Температура воздуха - температура, измеренная на высоте 2 м над землей.
  • Td - Температура точки росы - температура, при понижении до которой содержащийся в воздухе водяной пар достигнет насыщения.
  • f - Относительная влажность воздуха - влажноcть воздуха, измеренная на высоте 2 м над землей.
  • Te - Эффективная температура - температура, которую ощущает одетый по сезону человек в тени. Характеристика душности погоды. При расчете учитывается влияние влажности воздуха и скорости ветра на теплоощущения человека.
  • Tes - Эффективная температура на солнце - температура, которую ощущает человек, с поправкой на солнечный нагрев. Характеристика знойности погоды. Зависит от высоты солнца над горизонтом, облачности и скорости ветра. Ночью, в пасмурную погоду, а также при ветре 12 м/с и более поправка равна нулю.
  • P - Атмосферное давление - приведенное к уровню моря атмосферное давление.
  • Po - Атмосферное давление - измеренное на уровне метеостанции атмосферное давление.
  • Tmin - Минимальная температура - минимум температуры воздуха на высоте 2 м над землей.
  • Tmax - Максимальная температура - максимум температуры воздуха на высоте 2 м над землей.
  • R - Количество осадков - Количество выпавших осадков за период времени, мм. При наведении курсора мыши на число - период времени, за который выпало указанное количество осадков.
  • R24 - Количество осадков - Количество выпавших осадков за 24 часа, мм.
  • S - Снежный покров - Высота снежного покрова, см. При наведении курсора мыши на число - состояние снежного покрова и степень покрытия местности в баллах.